Total_Precipitation_Accumulation
0.05 0.06 0.07 0.08 0.08 0.07 0.12 0.08 0.11 0.07 0.07 0.09 0.07 0.08 0.07 0.07 0.07 0.07 0.07 0.08 0.08 0.09 0.14 0.15 0.16 0.15 0.15 0.17 0.22 0.23 0.19 0.20 0.18 0.18 0.19 0.19 0.21 0.24 0.24 0.23 0.38 0.35 0.23 0.07 0.02 0.01 0.01 0.00 0.02 0.03 0.06 0.09 0.15 0.16 0.15 0.06 0.04 0.06 0.04 0.07 0.09 0.13 0.10
0.07 0.07 0.08 0.09 0.09 0.08 0.08 0.13 0.11 0.08 0.08 0.08 0.07 0.08 0.09 0.11 0.13 0.09 0.09 0.08 0.08 0.07 0.09 0.13 0.15 0.13 0.12 0.13 0.21 0.25 0.25 0.24 0.21 0.25 0.24 0.20 0.21 0.22 0.22 0.19 0.24 0.30 0.26 0.17 0.05 0.02 0.01 0.01 0.01 0.03 0.04 0.07 0.09 0.13 0.17 0.15 0.10 0.07 0.08 0.07 0.11 0.14 0.10
0.11 0.11 0.11 0.11 0.10 0.10 0.12 0.13 0.14 0.11 0.14 0.16 0.14 0.12 0.09 0.09 0.09 0.09 0.09 0.08 0.08 0.07 0.08 0.10 0.14 0.15 0.14 0.14 0.23 0.25 0.26 0.26 0.27 0.26 0.24 0.25 0.18 0.16 0.14 0.15 0.20 0.25 0.25 0.19 0.13 0.05 0.03 0.02 0.02 0.03 0.04 0.05 0.09 0.11 0.09 0.15 0.18 0.15 0.14 0.11 0.11 0.11 0.09
0.09 0.10 0.10 0.12 0.12 0.17 0.11 0.12 0.11 0.13 0.16 0.17 0.15 0.17 0.19 0.15 0.12 0.11 0.11 0.12 0.10 0.08 0.08 0.09 0.12 0.13 0.14 0.19 0.21 0.22 0.23 0.25 0.27 0.26 0.27 0.24 0.21 0.20 0.15 0.11 0.11 0.17 0.22 0.19 0.18 0.10 0.07 0.03 0.03 0.03 0.04 0.05 0.06 0.10 0.14 0.15 0.22 0.23 0.21 0.17 0.17 0.09 0.10
0.09 0.11 0.12 0.12 0.10 0.09 0.09 0.10 0.10 0.11 0.11 0.11 0.12 0.15 0.15 0.16 0.16 0.16 0.15 0.14 0.14 0.15 0.14 0.13 0.11 0.10 0.11 0.12 0.19 0.22 0.24 0.25 0.27 0.29 0.29 0.27 0.21 0.21 0.18 0.16 0.16 0.18 0.20 0.29 0.23 0.16 0.09 0.05 0.04 0.04 0.05 0.05 0.08 0.10 0.15 0.18 0.21 0.23 0.27 0.25 0.21 0.16 0.11
0.13 0.13 0.12 0.12 0.12 0.12 0.14 0.12 0.12 0.12 0.15 0.12 0.10 0.11 0.12 0.13 0.13 0.13 0.15 0.16 0.16 0.15 0.15 0.16 0.15 0.13 0.14 0.15 0.17 0.18 0.17 0.22 0.28 0.31 0.28 0.27 0.30 0.30 0.25 0.23 0.21 0.20 0.23 0.25 0.24 0.20 0.13 0.08 0.07 0.07 0.07 0.07 0.08 0.10 0.13 0.21 0.23 0.22 0.27 0.29 0.29 0.28 0.21
0.15 0.15 0.14 0.14 0.14 0.14 0.14 0.14 0.13 0.13 0.12 0.12 0.13 0.14 0.13 0.13 0.13 0.12 0.13 0.13 0.13 0.13 0.14 0.15 0.15 0.15 0.14 0.15 0.15 0.16 0.16 0.17 0.18 0.27 0.30 0.31 0.32 0.30 0.33 0.40 0.40 0.34 0.26 0.24 0.25 0.27 0.15 0.12 0.14 0.08 0.11 0.07 0.06 0.08 0.09 0.13 0.20 0.26 0.24 0.26 0.27 0.27 0.24
0.18 0.17 0.16 0.18 0.18 0.16 0.15 0.16 0.15 0.15 0.14 0.14 0.14 0.14 0.16 0.15 0.18 0.19 0.17 0.15 0.13 0.13 0.13 0.14 0.15 0.15 0.14 0.13 0.13 0.13 0.13 0.14 0.18 0.23 0.28 0.26 0.28 0.32 0.41 0.44 0.42 0.40 0.38 0.38 0.37 0.30 0.24 0.18 0.12 0.10 0.07 0.10 0.13 0.15 0.15 0.12 0.13 0.19 0.21 0.25 0.28 0.26 0.25
0.22 0.21 0.22 0.19 0.19 0.20 0.18 0.19 0.18 0.17 0.18 0.18 0.18 0.19 0.24 0.23 0.24 0.23 0.23 0.21 0.19 0.17 0.15 0.14 0.14 0.13 0.16 0.13 0.12 0.12 0.13 0.14 0.17 0.22 0.25 0.25 0.27 0.34 0.40 0.43 0.42 0.45 0.47 0.45 0.41 0.37 0.25 0.21 0.16 0.13 0.12 0.12 0.14 0.16 0.15 0.12 0.11 0.16 0.17 0.18 0.20 0.23 0.27
0.23 0.26 0.35 0.24 0.22 0.22 0.25 0.23 0.21 0.19 0.20 0.25 0.34 0.41 0.42 0.42 0.40 0.37 0.35 0.33 0.29 0.24 0.20 0.17 0.15 0.13 0.11 0.12 0.13 0.15 0.16 0.19 0.22 0.23 0.25 0.29 0.32 0.35 0.43 0.47 0.50 0.49 0.43 0.44 0.49 0.40 0.31 0.31 0.23 0.15 0.11 0.10 0.09 0.07 0.06 0.07 0.08 0.09 0.09 0.10 0.17 0.19 0.24
0.32 0.31 0.31 0.30 0.31 0.35 0.32 0.30 0.25 0.23 0.30 0.50 0.68 0.65 0.64 0.59 0.50 0.42 0.40 0.36 0.33 0.29 0.23 0.18 0.16 0.15 0.14 0.14 0.15 0.17 0.19 0.22 0.23 0.29 0.33 0.30 0.29 0.36 0.45 0.53 0.57 0.51 0.43 0.44 0.42 0.38 0.31 0.27 0.21 0.12 0.12 0.11 0.09 0.07 0.07 0.09 0.09 0.09 0.10 0.14 0.19 0.24 0.22
0.40 0.33 0.31 0.33 0.34 0.36 0.35 0.35 0.29 0.33 0.52 0.66 0.87 1.02 0.82 0.75 0.64 0.53 0.45 0.40 0.35 0.30 0.25 0.22 0.19 0.18 0.16 0.17 0.16 0.16 0.16 0.19 0.23 0.28 0.29 0.33 0.39 0.46 0.58 0.69 0.58 0.57 0.55 0.45 0.46 0.45 0.36 0.34 0.24 0.13 0.10 0.09 0.11 0.12 0.11 0.12 0.13 0.16 0.17 0.18 0.18 0.17 0.17
0.38 0.38 0.39 0.39 0.44 0.39 0.37 0.37 0.33 0.42 0.62 0.73 1.00 1.17 1.15 0.93 0.73 0.58 0.46 0.38 0.33 0.29 0.26 0.24 0.25 0.24 0.22 0.18 0.16 0.19 0.19 0.21 0.21 0.24 0.28 0.32 0.35 0.39 0.54 0.76 1.00 0.83 0.61 0.64 0.62 0.58 0.46 0.31 0.27 0.30 0.18 0.10 0.10 0.17 0.20 0.17 0.19 0.22 0.22 0.21 0.19 0.16 0.13
0.45 0.44 0.49 0.50 0.51 0.48 0.47 0.44 0.41 0.48 0.75 0.98 1.16 1.35 1.43 1.00 0.82 0.66 0.53 0.43 0.36 0.32 0.29 0.27 0.28 0.30 0.28 0.23 0.21 0.23 0.23 0.22 0.23 0.23 0.24 0.27 0.32 0.34 0.35 0.48 0.56 0.56 0.51 0.55 0.61 0.67 0.58 0.36 0.37 0.27 0.25 0.39 0.30 0.28 0.31 0.29 0.26 0.28 0.28 0.28 0.26 0.19 0.18
0.51 0.52 0.54 0.55 0.63 0.60 0.59 0.50 0.48 0.67 0.96 1.07 1.25 1.33 1.74 1.25 1.07 0.84 0.62 0.48 0.40 0.37 0.34 0.30 0.29 0.28 0.26 0.23 0.24 0.24 0.23 0.24 0.24 0.25 0.26 0.25 0.25 0.23 0.22 0.22 0.21 0.26 0.41 0.46 0.38 0.39 0.38 0.32 0.27 0.23 0.20 0.21 0.28 0.41 0.43 0.36 0.33 0.30 0.32 0.35 0.35 0.37 0.33
0.42 0.43 0.44 0.43 0.47 0.53 0.52 0.41 0.46 0.72 0.96 1.08 1.31 1.58 1.48 1.39 1.07 0.84 0.68 0.53 0.45 0.39 0.35 0.31 0.32 0.34 0.31 0.27 0.25 0.23 0.42 0.34 0.30 0.35 0.36 0.33 0.26 0.21 0.18 0.17 0.15 0.23 0.30 0.23 0.33 0.34 0.29 0.26 0.21 0.31 0.30 0.34 0.37 0.35 0.36 0.43 0.48 0.51 0.58 0.63 0.64 0.52 0.34
0.31 0.33 0.37 0.39 0.39 0.42 0.39 0.36 0.40 0.58 0.87 0.97 1.22 1.66 1.76 1.49 1.08 0.81 0.64 0.51 0.43 0.39 0.36 0.33 0.31 0.32 0.33 0.29 0.27 0.22 0.47 0.60 0.61 0.56 0.53 0.49 0.40 0.30 0.25 0.21 0.14 0.34 0.68 0.96 1.13 1.27 0.98 0.85 0.87 0.99 1.19 1.20 1.15 0.73 0.73 0.80 0.89 0.78 0.57 0.60 0.62 0.45 0.29
0.33 0.33 0.34 0.37 0.39 0.39 0.41 0.37 0.35 0.48 0.69 0.84 1.11 1.30 1.29 1.26 1.13 0.83 0.66 0.57 0.48 0.44 0.42 0.34 0.36 0.33 0.32 0.33 0.27 0.33 0.53 0.79 0.77 0.90 0.71 0.56 0.50 0.43 0.36 0.25 0.15 0.14 0.18 0.57 1.02 1.25 1.26 1.40 1.27 1.21 1.21 1.38 1.35 1.25 0.77 0.88 1.02 0.70 0.44 0.48 0.47 0.44 0.27
0.33 0.32 0.33 0.34 0.36 0.38 0.42 0.40 0.37 0.41 0.63 0.87 1.11 1.19 1.23 1.19 1.07 0.92 0.74 0.67 0.60 0.51 0.42 0.35 0.31 0.36 0.40 0.34 0.32 0.55 0.74 1.18 0.93 0.88 0.67 0.46 0.47 0.52 0.46 0.30 0.19 0.16 0.18 0.20 0.25 0.32 0.39 0.45 0.61 0.57 0.59 0.50 0.60 0.72 0.87 0.78 0.78 0.64 0.58 0.57 0.46 0.38 0.36
0.28 0.28 0.31 0.34 0.40 0.42 0.42 0.41 0.39 0.43 0.56 0.82 0.88 1.11 1.05 0.96 0.91 0.90 0.80 0.73 0.65 0.66 0.59 0.46 0.41 0.35 0.38 0.63 0.81 0.73 1.09 1.25 1.69 0.98 0.88 0.66 0.65 0.58 0.40 0.20 0.16 0.20 0.23 0.24 0.24 0.22 0.20 0.26 0.30 0.35 0.45 0.47 0.43 0.37 0.43 0.65 0.55 0.59 0.59 0.54 0.45 0.36 0.32
0.29 0.33 0.37 0.37 0.37 0.40 0.41 0.41 0.39 0.35 0.49 0.65 0.70 0.86 1.15 0.90 0.83 0.73 0.71 0.72 0.72 0.63 0.55 0.50 0.43 0.40 0.35 0.44 0.65 0.78 1.03 1.24 1.53 1.34 0.92 0.90 0.76 0.45 0.29 0.34 0.42 0.38 0.30 0.32 0.27 0.24 0.23 0.23 0.27 0.35 0.40 0.44 0.40 0.39 0.37 0.48 0.36 0.41 0.36 0.46 0.51 0.44 0.37
0.37 0.36 0.29 0.27 0.30 0.35 0.36 0.35 0.35 0.39 0.42 0.44 0.62 0.84 1.10 0.95 0.81 0.67 0.75 0.81 0.65 0.51 0.43 0.38 0.38 0.38 0.39 0.41 0.56 0.84 1.27 1.30 1.45 1.62 1.11 0.93 1.04 1.11 1.04 0.55 0.47 0.41 0.40 0.35 0.33 0.30 0.28 0.28 0.28 0.29 0.32 0.39 0.40 0.36 0.49 0.39 0.32 0.27 0.25 0.24 0.26 0.33 0.36
0.36 0.31 0.28 0.28 0.32 0.33 0.33 0.32 0.32 0.42 0.36 0.36 0.53 0.72 0.92 0.97 0.96 0.95 0.75 0.72 0.63 0.48 0.40 0.35 0.36 0.35 0.37 0.44 0.81 1.12 1.33 1.42 1.68 1.43 1.26 1.40 1.31 1.24 1.01 0.90 0.84 0.68 0.59 0.48 0.39 0.34 0.37 0.32 0.27 0.29 0.27 0.25 0.33 0.31 0.25 0.27 0.27 0.27 0.28 0.29 0.24 0.20 0.21
0.35 0.27 0.28 0.31 0.32 0.32 0.30 0.30 0.35 0.36 0.31 0.33 0.38 0.56 0.80 0.89 0.94 0.93 0.73 0.65 0.55 0.46 0.43 0.40 0.36 0.34 0.44 0.77 0.82 0.99 1.25 1.47 1.30 1.23 1.41 1.60 1.42 1.00 0.91 0.90 0.92 0.88 0.80 0.65 0.51 0.44 0.36 0.30 0.22 0.22 0.20 0.21 0.18 0.27 0.31 0.28 0.28 0.26 0.27 0.27 0.22 0.19 0.18
0.27 0.28 0.29 0.30 0.31 0.34 0.33 0.33 0.34 0.30 0.30 0.31 0.34 0.40 0.58 0.66 0.78 0.67 0.62 0.58 0.48 0.45 0.44 0.42 0.51 0.65 0.76 0.87 0.99 1.03 0.94 0.96 0.87 0.90 1.09 0.97 0.99 1.03 0.95 1.01 0.90 0.74 0.66 0.74 0.70 0.52 0.36 0.23 0.19 0.17 0.17 0.17 0.20 0.23 0.33 0.37 0.34 0.31 0.26 0.27 0.25 0.24 0.18
0.30 0.28 0.27 0.29 0.29 0.33 0.36 0.39 0.33 0.28 0.30 0.34 0.35 0.37 0.46 0.55 0.49 0.50 0.47 0.52 0.47 0.38 0.35 0.38 0.54 0.43 0.44 0.50 0.57 0.65 0.75 0.96 0.71 0.62 0.60 0.73 0.85 0.82 0.92 0.95 0.83 0.65 0.59 0.55 0.43 0.39 0.35 0.27 0.21 0.22 0.25 0.20 0.22 0.29 0.33 0.37 0.40 0.43 0.36 0.32 0.35 0.34 0.31
0.32 0.31 0.33 0.35 0.34 0.37 0.37 0.39 0.31 0.29 0.32 0.40 0.45 0.45 0.47 0.51 0.47 0.50 0.42 0.42 0.49 0.45 0.39 0.37 0.40 0.40 0.43 0.43 0.47 0.57 0.66 0.60 0.50 0.53 0.71 0.60 0.56 0.76 0.86 1.10 0.77 0.58 0.53 0.43 0.35 0.31 0.25 0.23 0.30 0.27 0.34 0.38 0.35 0.34 0.31 0.31 0.33 0.39 0.38 0.34 0.32 0.30 0.30
0.48 0.50 0.55 0.58 0.51 0.51 0.44 0.37 0.31 0.32 0.42 0.53 0.55 0.56 0.52 0.50 0.49 0.56 0.56 0.42 0.41 0.43 0.39 0.42 0.43 0.46 0.46 0.56 0.61 0.61 0.61 0.58 0.55 0.48 0.43 0.44 0.50 0.57 0.64 0.74 0.74 0.69 0.67 0.52 0.50 0.51 0.40 0.40 0.40 0.43 0.40 0.37 0.34 0.28 0.25 0.27 0.34 0.34 0.41 0.44 0.40 0.47 0.41
0.87 0.78 0.82 0.70 0.69 0.75 0.65 0.52 0.51 0.49 0.53 0.57 0.58 0.62 0.61 0.63 0.58 0.55 0.53 0.43 0.42 0.46 0.47 0.43 0.45 0.45 0.45 0.43 0.44 0.47 0.48 0.45 0.42 0.38 0.39 0.46 0.50 0.46 0.48 0.50 0.64 0.70 0.60 0.48 0.51 0.58 0.56 0.56 0.53 0.45 0.37 0.38 0.38 0.31 0.26 0.27 0.35 0.37 0.38 0.45 0.53 0.56 0.44
1.07 1.05 1.03 0.91 0.71 0.72 0.82 0.75 0.63 0.58 0.74 0.75 0.80 0.92 0.77 0.71 0.80 0.74 0.61 0.51 0.47 0.44 0.45 0.41 0.38 0.37 0.36 0.35 0.33 0.34 0.34 0.33 0.33 0.33 0.34 0.38 0.42 0.41 0.42 0.44 0.48 0.53 0.49 0.45 0.53 0.50 0.54 0.50 0.48 0.41 0.39 0.38 0.38 0.35 0.29 0.28 0.36 0.42 0.44 0.50 0.60 0.59 0.50
0.95 1.03 0.88 0.84 0.91 0.79 0.57 0.55 0.50 0.51 0.69 0.76 0.92 0.96 0.90 0.95 0.88 0.81 0.76 0.62 0.56 0.50 0.43 0.39 0.34 0.34 0.32 0.29 0.28 0.29 0.30 0.30 0.30 0.30 0.29 0.32 0.34 0.35 0.37 0.41 0.43 0.47 0.47 0.47 0.49 0.52 0.56 0.50 0.48 0.42 0.35 0.34 0.31 0.31 0.34 0.40 0.44 0.41 0.48 0.51 0.50 0.49 0.44
0.78 0.89 0.99 0.82 0.88 1.00 0.80 0.66 0.63 0.60 0.78 0.92 1.06 1.04 0.95 0.90 0.96 0.92 0.78 0.62 0.62 0.55 0.44 0.37 0.33 0.33 0.31 0.28 0.28 0.26 0.25 0.28 0.32 0.32 0.32 0.30 0.27 0.26 0.26 0.30 0.37 0.42 0.44 0.46 0.47 0.48 0.51 0.55 0.54 0.49 0.41 0.34 0.30 0.29 0.31 0.38 0.49 0.54 0.64 0.59 0.51 0.45 0.39
0.53 0.59 0.70 0.72 0.87 0.95 0.93 0.73 0.69 0.70 0.86 0.90 0.97 0.93 0.75 0.73 0.74 0.64 0.60 0.50 0.38 0.34 0.37 0.36 0.34 0.33 0.32 0.30 0.28 0.28 0.29 0.31 0.34 0.29 0.28 0.27 0.28 0.25 0.23 0.24 0.25 0.31 0.38 0.41 0.44 0.45 0.47 0.58 0.50 0.53 0.50 0.47 0.39 0.36 0.33 0.29 0.32 0.35 0.38 0.47 0.53 0.47 0.42
0.41 0.37 0.41 0.43 0.56 0.68 0.71 0.60 0.58 0.60 0.60 0.64 0.71 0.74 0.76 0.77 0.68 0.61 0.62 0.44 0.37 0.33 0.32 0.31 0.31 0.32 0.33 0.33 0.33 0.33 0.32 0.33 0.34 0.28 0.25 0.22 0.21 0.22 0.22 0.20 0.22 0.26 0.31 0.33 0.36 0.40 0.39 0.42 0.44 0.52 0.52 0.55 0.48 0.41 0.34 0.34 0.31 0.29 0.36 0.42 0.40 0.37 0.37
0.32 0.29 0.33 0.42 0.45 0.56 0.60 0.50 0.48 0.54 0.63 0.72 0.73 0.73 0.83 0.65 0.59 0.64 0.51 0.37 0.30 0.30 0.30 0.30 0.29 0.29 0.28 0.27 0.28 0.30 0.31 0.31 0.32 0.28 0.26 0.24 0.22 0.19 0.19 0.23 0.22 0.21 0.23 0.25 0.28 0.31 0.34 0.35 0.40 0.44 0.45 0.45 0.45 0.45 0.44 0.38 0.35 0.34 0.33 0.33 0.36 0.32 0.29
0.35 0.31 0.29 0.38 0.37 0.42 0.56 0.56 0.49 0.52 0.66 0.81 0.81 0.81 0.69 0.57 0.48 0.40 0.38 0.33 0.32 0.31 0.32 0.31 0.32 0.32 0.31 0.33 0.34 0.35 0.33 0.32 0.32 0.32 0.31 0.29 0.26 0.24 0.22 0.23 0.24 0.22 0.21 0.21 0.22 0.25 0.28 0.31 0.35 0.40 0.44 0.44 0.40 0.37 0.35 0.33 0.30 0.29 0.30 0.30 0.30 0.34 0.31